Regional Weather Roundup
Issued by NWS Northern Indiana

Home | Current Version | Previous Version | Graphics & Text | Print | Product List | Glossary On
Versions: 1 2 3 4 5 6 7 8 9 10 11 12 13 14 15 16 17 18 19 20 21 22 23 24 25 26 27 28 29 30 31 32 33 34 35 36 37 38 39 40 41 42 43 44 45 46 47 48 49 50
000
ASUS43 KIWX 270910
RWRIWX

KIWX WEATHER ROUNDUP
NATIONAL WEATHER SERVICE NORTHERN INDIANA
500 AM EDT THU APR 27 2017

NOTE: "FAIR" INDICATES FEW OR NO CLOUDS BELOW 12,000 FEET WITH NO
SIGNIFICANT WEATHER AND/OR OBSTRUCTIONS TO VISIBILITY.

* THESE STATIONS ARE NOT UNDER NWS QUALITY CONTROL. THEY ALSO MAY NOT
  REPORT WEATHER SUCH AS PRECIPITATION OR FOG.

INZ001>027-271000-
NORTHERN INDIANA

CITY           SKY/WX    TMP DP  RH WIND       PRES   REMARKS
GARY*          LGT RAIN  61  57  86 S10G18    29.35F
VALPARAISO     CLOUDY    61  58  90 S14       29.39F
MICHIGAN CITY* DRIZZLE   59  59 100 S8        29.37F
LAPORTE*       CLOUDY    60  57  89 S13G18    29.39F
KNOX*          CLOUDY    59  43  55 S14       29.40F
SOUTH BEND     CLOUDY    60  58  92 S12       29.41F
GOSHEN         CLOUDY    61  57  87 SW12      29.44F
MONTICELLO*    CLOUDY    59  56  87 S5        29.41F
LOGANSPORT*    LGT RAIN  59  55  88 S8        29.45F
ROCHESTER*     CLOUDY    63  57  82 S9        29.44F
WARSAW*        CLOUDY    61  55  82 SW5       29.45F
ANGOLA*        MOCLDY    66  57  72 S12       29.44S
FORT WAYNE     CLOUDY    63  56  78 SW15      29.49R
HUNTINGTON*    CLOUDY    61  58  91 SW6       29.49S
PERU/GRISSOM   LGT RAIN  59  59 100 S12       29.43F
MARION*        CLOUDY    59  55  88 S8        29.51S

$$
INZ028>050-271000-
CENTRAL INDIANA

CITY           SKY/WX    TMP DP  RH WIND       PRES   REMARKS
LAFAYETTE      CLOUDY    58  55  90 SW6       29.40F
KOKOMO*        CLOUDY    60  56  86 S10       29.47F
MUNCIE*        CLOUDY    64  53  67 SW10      29.53S
INDIANAPOLIS   LGT RAIN  60  57  89 S13       29.48F

$$
MIZ043>046-050>051-056>058-064>065-071>073-077>080-271000-
SOUTHWEST LOWER MICHIGAN

CITY           SKY/WX    TMP DP  RH WIND       PRES   REMARKS
BATTLE CREEK   MOCLDY    65  56  72 S8        29.42F
BENTON HARBOR  CLOUDY    61  58  90 S10       29.38F
COLDWATER*     CLOUDY    67  54  62 S10G18    29.43S
HILLSDALE*     CLOUDY    63  52  67 S9        29.45F
HOLLAND        CLOUDY    59  58  96 S7        29.38F FOG
GRAND RAPIDS   CLOUDY    61  60  97 S7        29.38F
KALAMAZOO      CLOUDY    64  57  78 S9        29.41F
STURGIS*       CLOUDY    64  58  80 SW17G23   29.43S
THREE RIVERS*  LGT RAIN  63  59  87 SW9       29.43R

$$
OHZ001>008-015>018-024>025-271000-
NORTHWEST OHIO

CITY           SKY/WX    TMP DP  RH WIND       PRES   REMARKS
WAUSEON*       FAIR      64  52  63 S13       29.48F
DEFIANCE       CLOUDY    69  53  56 S18G29    29.47F
FINDLAY        CLOUDY    71  53  52 S18       29.52S
TOLEDO EXPRESS CLOUDY    67  51  56 S9G17     29.49F
TOLEDO METCALF MOCLDY    68  54  60 S15       29.52S
LIMA           CLOUDY    70  56  61 S18G26    29.53F

$$
AND FOR LAKE MICHIGAN COASTAL AND OPEN LAKE BUOY OBSERVATIONS

STATION/POSITION TEMP    WIND        PRES    VSBY  WAVE
                 AIR SEA DIR/SP/G                  HT/PER
                 (F)     (DEG/KT/KT) (MB)    (MI)  (FT/S)
CALUMET HARBOR    61     160/ 11/ 14  992.7F
MICHIGAN CITY     61     150/ 13/ 18   N/A
BURNS HARBOR      62     170/ 11/ 23  994.2F
SOUTH LAKE BUOY   48 42  100/  8/ 10  994.8          0
4 MI NW BRIDGMAN  58 50  180/ 14/ 17  994.8          1
MICHIGAN CITY     58 49                N/A           2/ 2

$$
&&



USA.gov is the U.S. government's official web portal to all federal, state and local government web resources and services.